Wind_Speed
66 66 67 68 70 71 72 73 74 74 75 76 76 76 76 76 75 75 75 75 75 75 75 75 75 75 75 74 74 74 75 76 78 80 81 81 82 82 82 82 82 83
68 68 70 71 72 73 74 75 76 76 77 77 77 77 77 78 78 78 78 77 78 78 78 79 79 79 79 79 79 78 79 80 81 83 84 85 86 87 87 87 86 86
70 71 73 74 74 75 76 77 78 79 79 79 79 79 80 80 80 80 80 80 80 81 82 82 83 83 83 83 83 83 84 84 84 86 88 88 89 90 91 91 91 91
73 74 75 76 76 77 78 79 80 81 81 81 81 81 81 81 82 82 82 82 83 84 85 85 86 86 86 86 86 87 88 88 88 89 90 92 93 93 94 94 95 95
75 76 77 78 79 80 81 81 83 83 84 83 83 83 83 83 83 84 84 85 86 86 87 88 89 89 89 90 90 91 91 91 91 92 93 94 96 96 97 97 97 98
78 79 79 80 81 82 83 84 86 86 86 85 84 84 84 84 85 86 87 88 88 89 90 91 92 92 93 93 93 94 94 94 94 94 95 96 98 99 100 100 100 100
81 81 82 83 84 85 86 87 88 88 87 86 86 86 86 86 87 88 89 90 91 92 93 94 95 95 95 95 96 97 97 97 97 98 98 99 100 101 101 102 102 101
82 84 85 86 87 88 88 89 89 89 89 88 88 88 88 89 90 91 92 92 93 95 96 97 97 98 98 98 99 100 100 100 101 101 101 102 102 103 103 103 103 103
85 87 88 89 89 90 90 91 91 91 91 90 90 91 91 91 92 93 94 95 96 97 98 99 100 100 101 101 102 103 104 104 104 104 104 104 104 104 104 105 104 104
88 90 91 92 92 92 93 93 94 93 93 93 93 93 93 94 95 95 97 98 99 100 101 101 102 103 104 105 106 107 107 107 106 106 105 105 105 105 105 105 105 104
91 92 93 94 94 95 95 95 95 95 96 96 96 96 96 97 97 98 99 100 101 102 103 104 105 106 107 109 109 110 109 109 108 108 107 107 107 106 106 105 105 105
95 95 95 96 96 96 97 97 97 97 98 98 99 99 99 99 100 101 102 103 104 106 107 108 109 110 110 111 111 112 111 111 110 109 109 108 107 107 107 106 105 105
97 97 97 98 98 98 98 98 99 99 100 101 101 101 101 102 103 104 105 107 108 109 110 111 111 111 112 113 113 114 113 112 112 111 110 109 108 108 107 107 106 105
99 99 99 99 99 99 100 100 101 102 102 103 104 104 105 106 107 108 109 110 111 111 112 113 113 113 114 115 115 115 114 113 113 112 111 110 109 108 108 107 106 104
100 100 101 101 101 102 102 103 103 104 105 107 108 109 110 110 111 111 111 112 113 114 114 115 115 115 116 116 116 115 114 114 113 112 112 111 110 109 107 106 104 102
102 102 102 103 103 104 105 105 107 108 109 110 111 112 113 113 114 114 114 115 116 116 116 116 116 116 117 116 116 115 115 114 113 113 112 111 110 107 105 103 102 100
103 103 104 105 106 107 107 108 110 111 112 113 114 115 115 116 116 117 118 118 118 118 118 117 117 117 117 117 116 115 115 114 113 112 111 109 107 105 102 101 100 99
104 105 106 108 109 110 111 111 112 113 114 115 116 117 118 119 119 120 120 120 120 119 118 118 117 117 117 117 116 116 114 113 111 109 107 106 104 102 100 99 98 97
107 109 110 111 112 113 114 115 116 117 117 118 119 120 120 120 121 121 121 120 120 119 118 118 117 117 117 116 116 114 113 111 108 106 104 102 101 100 99 98 98 98
111 112 113 114 116 117 118 119 119 120 121 121 121 121 121 121 121 120 120 120 119 119 118 117 116 116 115 114 113 111 110 108 106 104 102 101 100 99 99 99 99 99
115 115 116 118 119 120 121 122 122 122 123 123 122 122 121 121 120 120 119 119 118 117 116 114 113 112 111 110 109 107 106 105 103 102 101 100 100 100 101 101 101 101
119 119 120 121 121 122 123 123 123 123 123 122 121 120 120 119 118 117 116 115 113 112 110 108 107 107 106 105 104 104 103 103 102 102 102 102 102 103 103 104 104 104
122 122 123 123 123 123 123 122 122 121 120 119 118 117 115 114 113 112 110 109 108 107 105 104 103 103 103 103 103 103 103 103 103 103 103 104 104 106 107 107 108 108
125 125 124 123 123 122 121 120 118 117 116 115 113 111 110 109 109 108 107 106 106 105 105 104 103 103 104 104 105 105 105 105 105 105 105 106 107 109 110 111 111 112
126 125 124 122 121 119 118 116 114 113 112 110 109 108 107 107 107 106 106 106 106 106 106 106 105 106 106 107 107 108 108 108 108 108 108 109 111 112 113 114 114 116
123 122 121 119 117 115 113 112 111 110 109 109 109 108 108 107 107 107 107 107 107 107 107 107 107 108 109 109 110 111 111 111 111 112 112 113 114 115 116 117 118 119
Wind_Direction
291 292 295 297 298 300 301 303 304 304 303 305 306 306 306 306 306 305 304 305 305 305 305 306 305 305 306 306 306 305 304 302 302 303 303 304 304 304 305 305 306 306
291 293 295 297 297 298 300 301 302 302 302 303 304 303 304 304 304 303 303 304 304 304 305 305 305 305 306 306 305 305 304 304 304 304 304 305 305 305 306 306 306 306
291 292 294 296 296 297 299 300 300 301 301 302 302 302 303 303 302 302 303 303 303 304 304 304 304 305 305 305 305 305 304 305 306 305 305 305 305 306 306 306 306 306
290 292 293 294 295 296 298 298 299 300 300 301 301 302 302 302 302 302 302 302 302 303 303 303 303 304 304 304 305 305 305 306 306 306 306 305 305 305 305 305 305 305
290 291 293 294 295 296 297 297 298 299 300 300 301 301 301 301 301 301 301 301 301 302 302 302 302 303 304 304 304 304 305 306 306 305 305 305 304 304 304 304 304 304
290 291 292 293 294 295 296 297 298 299 300 300 301 300 300 300 299 299 300 300 300 300 300 301 302 303 303 303 303 304 304 305 305 304 304 303 303 303 303 303 303 303
289 291 292 293 294 295 296 297 298 299 299 299 299 299 299 299 298 298 299 299 299 299 300 301 302 302 302 303 303 303 303 303 303 303 302 302 302 302 302 302 302 302
289 291 293 294 295 295 296 297 297 298 298 298 298 298 298 298 297 298 298 298 298 299 300 301 301 302 302 302 302 302 301 301 301 301 301 301 301 301 301 301 302 302
290 292 293 294 295 295 296 296 296 297 297 297 297 297 297 297 297 297 297 298 298 299 300 300 301 301 300 300 300 300 300 300 300 300 300 301 300 301 301 301 301 301
291 293 294 294 294 295 295 295 296 296 296 296 296 297 297 297 297 297 297 298 299 299 299 299 299 299 299 299 299 299 299 299 300 300 300 300 300 300 300 300 301 301
291 292 293 293 294 294 294 295 295 295 296 296 296 297 297 297 297 297 297 297 298 298 297 297 297 297 298 298 298 298 298 299 299 299 299 299 299 299 300 300 301 301
291 292 292 293 293 293 294 294 294 295 295 296 296 296 296 295 295 295 295 296 296 296 296 296 297 297 297 297 297 297 298 298 298 298 299 299 299 299 300 300 300 301
291 291 292 292 292 293 293 293 293 294 294 294 294 293 293 294 294 294 295 295 295 295 296 296 296 297 296 296 296 297 297 297 298 298 298 299 299 299 300 300 300 300
290 290 290 290 290 291 291 291 292 292 292 292 292 293 293 293 294 294 295 295 295 295 295 295 295 295 295 295 296 296 297 297 298 298 298 299 299 299 299 300 300 299
287 288 288 288 289 290 291 291 291 292 292 292 292 293 293 293 294 294 294 294 294 294 294 294 294 294 295 295 295 296 296 297 297 297 298 298 298 298 298 298 298 298
286 287 287 288 289 290 290 291 291 291 291 292 292 292 292 293 293 293 293 293 293 293 293 293 294 294 294 294 295 295 295 296 296 296 297 297 297 297 296 296 296 296
286 286 287 288 288 289 289 289 290 290 290 290 291 291 291 292 292 292 292 292 292 293 293 293 293 293 293 293 293 293 294 294 294 294 294 294 294 294 294 294 294 294
285 286 286 287 287 288 288 288 288 288 289 289 290 290 290 291 291 291 291 292 292 292 292 292 291 291 291 291 291 291 291 291 291 292 292 292 292 292 292 292 292 292
285 285 286 286 287 287 287 287 287 288 288 288 289 289 290 290 290 290 290 290 290 290 290 290 289 289 289 289 289 289 289 289 289 289 289 289 289 290 290 290 290 290
284 285 285 285 286 286 286 287 287 288 288 288 289 289 289 289 289 289 289 289 289 289 289 288 288 288 288 288 288 288 288 288 288 288 288 288 288 288 288 288 289 289
283 284 284 285 285 286 286 287 287 288 288 289 289 289 289 289 289 288 288 288 288 288 288 288 287 287 287 287 287 287 286 286 286 286 286 286 286 286 287 287 287 288
283 284 284 285 286 286 287 287 288 288 288 289 289 289 288 288 288 288 288 288 287 287 287 287 287 287 287 286 286 286 285 285 285 285 285 285 285 286 286 286 286 287
284 284 285 285 286 286 287 287 287 287 287 288 288 288 287 287 287 287 287 287 287 287 287 287 287 286 286 286 285 285 285 285 285 285 285 285 285 286 286 286 286 286
284 285 285 285 285 286 286 286 286 286 286 286 286 286 286 287 287 287 287 287 287 286 286 286 286 286 285 285 285 285 285 285 285 285 285 285 285 285 285 286 286 286
284 285 285 285 285 285 285 285 285 285 285 285 286 286 286 286 286 286 286 286 286 286 286 286 286 286 285 285 285 285 285 285 285 285 285 285 285 285 285 286 286 286
284 285 285 285 285 285 285 285 285 285 285 286 286 286 285 285 285 285 285 285 285 285 285 285 285 285 284 284 284 284 284 284 284 284 283 283 283 284 284 285 285 286
Height
10730 10728 10726 10724 10722 10720 10718 10716 10714 10712 10709 10708 10706 10703 10702 10700 10698 10695 10693 10691 10689 10687 10684 10682 10680 10677 10676 10675 10673 10671 10667 10663 10658 10652 10648 10646 10641 10638 10636 10633 10630 10626
10723 10721 10719 10717 10715 10713 10711 10710 10708 10705 10703 10701 10700 10697 10695 10692 10690 10687 10685 10682 10680 10677 10675 10672 10669 10667 10665 10664 10662 10659 10656 10652 10648 10643 10639 10636 10631 10627 10624 10622 10620 10617
10716 10714 10713 10711 10709 10707 10705 10703 10701 10698 10696 10694 10692 10690 10687 10684 10681 10678 10675 10673 10670 10667 10665 10662 10659 10656 10654 10652 10650 10648 10644 10641 10638 10632 10628 10625 10620 10617 10613 10609 10608 10606
10708 10707 10706 10703 10701 10699 10698 10696 10693 10690 10688 10686 10684 10682 10679 10675 10672 10668 10665 10663 10660 10657 10654 10651 10649 10646 10644 10642 10639 10636 10632 10630 10628 10622 10618 10613 10608 10606 10603 10599 10597 10593
10700 10699 10697 10695 10693 10691 10689 10687 10684 10682 10680 10677 10675 10672 10669 10666 10662 10658 10655 10653 10650 10647 10644 10641 10638 10636 10633 10631 10629 10625 10622 10620 10617 10613 10609 10604 10599 10596 10592 10589 10587 10583
10691 10690 10688 10687 10685 10683 10680 10677 10674 10673 10670 10668 10666 10662 10659 10656 10652 10648 10646 10643 10640 10637 10634 10631 10628 10625 10623 10621 10618 10614 10611 10609 10606 10603 10600 10596 10591 10587 10583 10579 10577 10574
10681 10680 10679 10678 10676 10673 10671 10667 10665 10663 10660 10659 10656 10652 10649 10647 10643 10639 10636 10634 10630 10627 10623 10620 10618 10615 10612 10609 10606 10603 10600 10598 10596 10594 10591 10587 10582 10578 10573 10570 10567 10564
10671 10670 10669 10668 10665 10663 10660 10657 10655 10653 10651 10649 10646 10642 10640 10638 10633 10629 10626 10624 10620 10616 10612 10609 10606 10603 10600 10597 10594 10592 10590 10588 10586 10584 10581 10576 10572 10568 10564 10560 10556 10553
10661 10660 10659 10658 10655 10653 10650 10647 10644 10642 10640 10639 10636 10633 10630 10627 10624 10620 10616 10613 10609 10606 10601 10598 10595 10592 10589 10586 10583 10581 10579 10577 10574 10573 10570 10566 10561 10557 10553 10549 10545 10541
10652 10651 10649 10647 10644 10642 10639 10636 10634 10631 10629 10627 10625 10622 10619 10616 10612 10609 10605 10601 10598 10595 10591 10588 10585 10582 10579 10576 10572 10569 10568 10565 10563 10560 10558 10554 10550 10546 10542 10537 10534 10529
10643 10642 10640 10637 10634 10631 10628 10625 10622 10619 10617 10614 10612 10610 10607 10604 10600 10597 10594 10591 10588 10585 10582 10578 10575 10572 10569 10564 10559 10557 10555 10553 10551 10548 10545 10542 10538 10534 10530 10526 10522 10518
10633 10631 10629 10627 10623 10620 10617 10614 10611 10608 10605 10602 10600 10599 10596 10593 10590 10588 10585 10583 10580 10575 10571 10567 10564 10561 10557 10552 10547 10544 10542 10540 10538 10535 10532 10529 10525 10521 10517 10514 10510 10506
10621 10620 10618 10615 10612 10609 10606 10603 10601 10598 10596 10593 10590 10589 10587 10584 10581 10579 10576 10573 10569 10564 10559 10555 10552 10549 10544 10539 10534 10531 10529 10527 10524 10522 10519 10516 10512 10509 10505 10501 10497 10493
10612 10610 10608 10605 10602 10600 10598 10595 10592 10589 10586 10583 10580 10578 10576 10573 10571 10568 10565 10561 10556 10552 10548 10544 10541 10537 10532 10527 10523 10519 10516 10514 10511 10508 10505 10502 10500 10496 10492 10488 10484 10480
10604 10601 10599 10596 10593 10591 10588 10586 10582 10579 10575 10572 10568 10566 10563 10561 10559 10557 10553 10549 10544 10541 10537 10533 10530 10525 10520 10515 10512 10508 10504 10502 10499 10496 10493 10490 10487 10484 10481 10476 10472 10469
10595 10592 10588 10585 10583 10581 10578 10575 10572 10569 10565 10561 10558 10555 10552 10550 10548 10545 10541 10538 10534 10531 10526 10522 10518 10513 10508 10504 10500 10497 10493 10491 10488 10485 10482 10478 10476 10473 10470 10466 10462 10459
10586 10582 10578 10576 10574 10571 10568 10565 10562 10558 10555 10551 10548 10544 10541 10538 10535 10532 10528 10525 10522 10520 10516 10512 10507 10502 10497 10493 10489 10486 10484 10481 10479 10476 10472 10468 10465 10462 10459 10455 10452 10448
10576 10573 10569 10566 10563 10561 10558 10555 10551 10548 10544 10541 10538 10534 10531 10528 10524 10520 10517 10513 10510 10508 10505 10502 10498 10492 10487 10483 10479 10476 10474 10472 10469 10466 10463 10459 10455 10452 10449 10445 10442 10438
10564 10561 10558 10554 10551 10548 10546 10543 10540 10537 10534 10530 10528 10524 10521 10518 10514 10510 10507 10502 10499 10497 10494 10491 10486 10481 10476 10472 10469 10466 10463 10461 10458 10455 10453 10449 10445 10442 10438 10435 10432 10428
10551 10549 10546 10542 10539 10535 10532 10529 10527 10524 10521 10518 10516 10513 10509 10506 10502 10498 10494 10490 10487 10484 10481 10478 10473 10467 10463 10460 10457 10453 10450 10448 10446 10443 10441 10438 10434 10430 10427 10424 10420 10417
10539 10537 10534 10530 10527 10523 10519 10516 10512 10510 10507 10503 10501 10498 10495 10491 10487 10484 10480 10477 10473 10469 10467 10465 10459 10454 10450 10447 10444 10441 10438 10436 10434 10431 10428 10426 10422 10418 10415 10411 10408 10405
10525 10524 10521 10517 10513 10510 10506 10502 10498 10495 10491 10488 10486 10483 10479 10476 10472 10469 10466 10462 10458 10454 10452 10451 10446 10440 10437 10434 10430 10428 10425 10423 10421 10418 10416 10413 10410 10405 10401 10398 10395 10392
10509 10509 10506 10503 10499 10496 10493 10489 10485 10481 10476 10473 10471 10469 10465 10460 10457 10454 10451 10447 10444 10441 10438 10437 10434 10427 10423 10420 10417 10414 10412 10410 10408 10406 10403 10400 10396 10391 10387 10384 10381 10377
10494 10492 10491 10489 10486 10482 10479 10476 10472 10467 10463 10460 10457 10455 10452 10447 10443 10441 10438 10433 10430 10427 10424 10423 10421 10415 10410 10407 10404 10401 10398 10397 10394 10392 10390 10386 10381 10376 10372 10369 10366 10362
10477 10475 10473 10472 10470 10467 10464 10461 10457 10453 10450 10446 10443 10441 10439 10435 10431 10428 10425 10421 10416 10413 10411 10408 10406 10402 10396 10393 10390 10386 10384 10382 10380 10378 10375 10371 10366 10362 10358 10355 10351 10347
10461 10458 10456 10454 10452 10450 10448 10445 10441 10438 10435 10432 10429 10426 10424 10422 10418 10415 10413 10409 10404 10400 10398 10395 10391 10388 10383 10379 10376 10373 10369 10367 10365 10363 10359 10355 10351 10348 10345 10341 10337 10332